Saranac Lake, NY

6:39 AM EDT on April 25, 2017 (GMT -0400)
Adirondack Regional

Weather History for KSLK - June, 2012

Change the Weather History Date:

Thursday, June 21, 2012

  Actual Average Record
Temperature  
Mean Temperature 76 °F 61 °F  
Max Temperature 88 °F 74 °F 90 °F (1953)
Min Temperature 63 °F 49 °F 34 °F (1986)
Degree Days  
Heating Degree Days 0 5  
Month to date heating degree days 150  
Since 1 June heating degree days 150  
Since 1 July heating degree days 9384  
Cooling Degree Days 11 1  
Month to date cooling degree days 32 20  
Year to date cooling degree days 48 23  
Since 1 June cooling degree days 32 20  
Growing Degree Days 25 (Base 50)    
Moisture  
Dew Point 62 °F    
Average Humidity 67    
Maximum Humidity 93    
Minimum Humidity 40    
Precipitation  
Precipitation 0.00 in 0.13 in 0.88 in (2015)
Month to date precipitation 1.95 2.74  
Year to date precipitation 13.94 15.09  
Sea Level Pressure  
Sea Level Pressure 29.86 in    
Wind  
Wind Speed 8 mph (WSW)    
Max Wind Speed 18 mph    
Max Gust Speed 25 mph    
Visibility 8 miles    
Events      
T = Trace of Precipitation, MM = Missing Value Source: NWS Daily Summary

Daily Weather History Graph

Daily Weather History Graph

Search for Another Location

Airport or City:

Trip Planner

Search our weather history database for the weather conditions in past years. The results will help you decide how hot, cold, wet, or windy it might be!

Date:

Astronomy

Jun. 21, 2012 Rise Set
Actual Time 5:12 AM EDT 8:44 PM EDT
Civil Twilight 4:35 AM EDT 9:21 PM EDT
Nautical Twilight 3:47 AM EDT 10:10 PM EDT
Astronomical Twilight 2:44 AM EDT 11:13 PM EDT
Moon 7:12 AM EDT (6/21) 10:00 PM EDT (6/21)
Length of Visible Light 16h 45m
Length of Day
15h 32m
Waxing Crescent, 4% of the Moon is Illuminated
Jun 21
Waxing Crescent
Jun 26
First Quarter
Jul 3
Full
Jul 10
Last Quarter
Jul 19
New

Hourly Weather History & Observations

Time (EDT) Temp. Heat Index Dew Point Humidity Pressure Visibility Wind Dir Wind Speed Gust Speed Precip Events Conditions
12:51 AM 71.1 °F - 64.0 °F 78% 29.94 in 10.0 mi WSW 3.5 mph - N/A   Clear
1:51 AM 70.0 °F - 63.0 °F 78% 29.94 in 9.0 mi WSW 4.6 mph - N/A   Clear
2:51 AM 69.1 °F - 62.1 °F 78% 29.94 in 9.0 mi SW 6.9 mph - N/A   Clear
3:51 AM 68.0 °F - 62.1 °F 81% 29.92 in 9.0 mi SW 5.8 mph - N/A   Clear
4:51 AM 63.0 °F - 61.0 °F 93% 29.93 in 6.0 mi SSW 3.5 mph - N/A   Clear
5:51 AM 66.0 °F - 62.1 °F 87% 29.92 in 5.0 mi SW 6.9 mph - N/A   Clear
6:51 AM 69.1 °F - 63.0 °F 81% 29.91 in 6.0 mi SW 6.9 mph - N/A   Haze
7:51 AM 73.0 °F - 63.0 °F 71% 29.90 in 7.0 mi WSW 8.1 mph - N/A   Clear
8:51 AM 78.1 °F - 64.0 °F 62% 29.90 in 7.0 mi WSW 9.2 mph 17.3 mph N/A   Clear
9:51 AM 81.0 °F 82.5 °F 64.0 °F 56% 29.88 in 8.0 mi WSW 5.8 mph - N/A   Clear
10:51 AM 82.9 °F 84.0 °F 63.0 °F 51% 29.87 in 8.0 mi Variable 6.9 mph - N/A   Mostly Cloudy
11:51 AM 84.9 °F 85.9 °F 63.0 °F 48% 29.86 in 9.0 mi WSW 10.4 mph - N/A   Mostly Cloudy
12:51 PM 86.0 °F 86.3 °F 62.1 °F 44% 29.85 in 10.0 mi West 10.4 mph 18.4 mph N/A   Scattered Clouds
1:51 PM 86.0 °F 86.3 °F 62.1 °F 44% 29.84 in 10.0 mi West 9.2 mph 18.4 mph N/A   Partly Cloudy
2:51 PM 86.0 °F 86.1 °F 61.0 °F 43% 29.82 in 10.0 mi West 12.7 mph 19.6 mph N/A   Clear
3:51 PM 87.1 °F 87.0 °F 61.0 °F 41% 29.81 in 10.0 mi West 11.5 mph 18.4 mph N/A   Scattered Clouds
4:51 PM 86.0 °F 85.7 °F 60.1 °F 41% 29.80 in 10.0 mi West 10.4 mph 23.0 mph N/A   Clear
5:51 PM 84.0 °F 83.8 °F 59.0 °F 43% 29.79 in 10.0 mi West 9.2 mph 18.4 mph N/A   Clear
6:51 PM 82.0 °F 82.4 °F 60.1 °F 47% 29.78 in 9.0 mi WSW 12.7 mph 21.9 mph N/A   Clear
7:51 PM 79.0 °F - 60.1 °F 52% 29.78 in 8.0 mi WSW 8.1 mph - N/A   Clear
8:51 PM 75.9 °F - 61.0 °F 60% 29.79 in 7.0 mi WSW 6.9 mph - N/A   Clear
9:51 PM 73.0 °F - 61.0 °F 66% 29.80 in 8.0 mi WSW 4.6 mph - N/A   Clear
10:51 PM 70.0 °F - 62.1 °F 76% 29.79 in 7.0 mi Calm Calm - N/A   Clear
11:51 PM 66.9 °F - 62.1 °F 84% 29.78 in 7.0 mi SW 4.6 mph - N/A   Clear